M0CJS Weather Reports


time (UTC)temp
C
wind
direction
speed
KPH
gust
KPH
rain 1hr
cm
rain 24hr
cm
rain mn
cm
humidity
%
barometer
mb
20260502130537 20 248 4.8 17.7 0.00 0.00 0.00 54 1016.9
20260502123517 20 158 6.4 17.7 0.00 0.00 0.00 57 1017.1
20260502122517 20 203 6.4 12.9 0.00 0.00 0.00 57 1017.0
20260502121517 20 158 1.6 6.4 0.00 0.00 0.00 56 1017.2
20260502120517 20 225 6.4 16.1 0.00 0.00 0.00 56 1017.5
20260502115537 19 225 9.7 17.7 0.00 0.00 0.00 56 1017.6
20260502114517 19 158 4.8 17.7 0.00 0.00 0.00 60 1017.5
20260502113516 18 45 3.2 11.3 0.00 0.00 0.00 58 1017.5
20260502112517 18 225 8.0 16.1 0.00 0.00 0.00 60 1017.8
20260502111517 18 225 4.8 14.5 0.00 0.00 0.00 61 1018.2
20260502110517 18 203 4.8 9.7 0.00 0.00 0.00 63 1018.3
20260502105516 18 270 4.8 11.3 0.00 0.00 0.00 62 1018.5
20260502104517 18 270 4.8 11.3 0.00 0.00 0.00 62 1018.4
20260502103516 18 248 4.8 11.3 0.00 0.00 0.00 62 1018.3
20260502102517 18 270 4.8 9.7 0.00 0.00 0.00 62 1018.3
20260502101537 17 248 3.2 11.3 0.00 0.00 0.00 64 1018.3
20260502100516 17 270 3.2 9.7 0.00 0.00 0.00 66 1018.4
20260502091516 16 203 4.8 11.3 0.00 0.00 0.00 69 1019.1
20260502090516 16 248 3.2 11.3 0.00 0.00 0.00 70 1019.3
20260502071516 12 315 1.6 6.4 0.00 0.00 0.00 84 1019.5
20260502070516 12 293 3.2 9.7 0.00 0.00 0.00 84 1019.5
20260502065536 12 225 1.6 8.0 0.00 0.00 0.00 86 1019.5
20260502064516 11 203 3.2 6.4 0.00 0.00 0.00 87 1019.4
20260502063516 11 203 1.6 4.8 0.00 0.00 0.00 88 1019.4
20260502062516 11 0.0 1.6 0.00 0.00 0.00 89 1019.3
20260502061516 10 0.0 4.8 0.00 0.00 0.00 90 1019.3
20260502060516 10 0.0 1.6 0.00 0.00 0.00 91 1019.2
20260502055516 10 0.0 1.6 0.00 0.00 0.00 91 1019.2
20260502054516 10 0.0 3.2 0.00 0.00 0.00 91 1019.3
20260502053516 9 293 1.6 4.8 0.00 0.00 0.00 92 1019.2
20260502052516 9 0.0 0.0 0.00 0.00 0.00 92 1019.2
20260502051516 9 0.0 0.0 0.00 0.00 0.00 92 1019.2
20260502050536 9 0.0 0.0 0.00 0.00 0.00 91 1019.1
20260502045516 9 0.0 0.0 0.00 0.00 0.00 91 1019.3
20260502044516 9 315 1.6 3.2 0.00 0.00 0.00 91 1019.3
20260502043516 9 293 1.6 4.8 0.00 0.00 0.00 91 1019.2
20260502042536 9 293 3.2 4.8 0.00 0.00 0.00 90 1019.1
20260502041516 9 293 1.6 4.8 0.00 0.00 0.00 89 1019.3
20260502040516 10 293 1.6 3.2 0.00 0.00 0.00 89 1019.4
20260502035515 10 293 3.2 4.8 0.00 0.00 0.00 88 1019.4
20260502034516 10 293 1.6 4.8 0.00 0.00 0.00 88 1019.3
20260502033516 10 293 1.6 3.2 0.00 0.00 0.00 87 1019.4
20260502032515 10 0.0 1.6 0.00 0.00 0.00 87 1019.3
20260502031516 11 0.0 3.2 0.00 0.00 0.00 86 1019.4
20260502030516 11 293 3.2 6.4 0.00 0.00 0.00 86 1019.6
20260502025515 11 293 3.2 6.4 0.00 0.00 0.00 86 1019.7
20260502024515 11 293 3.2 6.4 0.00 0.00 0.00 86 1019.8
20260502023516 11 293 4.8 9.7 0.00 0.00 0.00 85 1019.7
20260502022516 11 270 3.2 8.0 0.00 0.00 0.00 85 1019.8
20260502021515 11 270 1.6 4.8 0.00 0.00 0.00 85 1019.9
20260502020515 11 0.0 0.0 0.00 0.00 0.00 86 1019.8
20260502015535 11 0.0 0.0 0.00 0.00 0.00 86 1019.9
20260502014535 11 0.0 0.0 0.00 0.00 0.00 86 1020.0
20260502013515 11 0.0 0.0 0.00 0.00 0.00 86 1020.2
20260502012515 12 0.0 3.2 0.00 0.00 0.00 86 1020.1
20260502011515 12 0.0 3.2 0.00 0.00 0.00 86 1020.4
20260502010515 12 0.0 1.6 0.00 0.00 0.00 85 1020.5
20260502005515 12 270 1.6 3.2 0.00 0.00 0.00 86 1020.6
20260502004515 12 270 1.6 4.8 0.00 0.00 0.00 87 1020.6
20260502003515 12 270 1.6 3.2 0.00 0.00 0.00 88 1020.6
20260502002515 12 270 1.6 3.2 0.00 0.00 0.00 89 1020.7
20260502001517 12 293 1.6 6.4 0.00 0.00 0.00 89 1020.6
20260502000517 12 293 1.6 4.8 0.00 0.00 0.00 90 1020.6
20260501235537 12 293 3.2 4.8 0.00 0.00 0.00 90 1020.7
20260501234519 12 293 3.2 4.8 0.00 0.00 0.00 90 1020.6
20260501233519 12 293 3.2 4.8 0.00 0.00 0.00 90 1020.6
20260501232517 12 293 3.2 6.4 0.00 0.00 0.00 89 1020.7
20260501231518 12 293 3.2 6.4 0.00 0.00 0.00 89 1020.8
20260501230517 12 293 3.2 6.4 0.00 0.00 0.00 89 1020.7
20260501225517 12 0.0 3.2 0.00 0.00 0.00 89 1020.9
20260501224517 12 293 1.6 4.8 0.00 0.00 0.00 89 1020.7
20260501223515 12 270 3.2 6.4 0.00 0.00 0.00 89 1020.9
20260501222515 12 225 1.6 3.2 0.00 0.00 0.00 89 1020.8
20260501221515 12 270 1.6 4.8 0.00 0.00 0.00 89 1020.8
20260501220544 12 0.0 3.2 0.00 0.00 0.00 89 1020.8
20260501215517 12 0.0 3.2 0.00 0.00 0.00 89 1020.8
20260501214517 12 0.0 1.6 0.00 0.00 0.00 89 1020.9
20260501213537 12 270 1.6 3.2 0.00 0.00 0.00 89 1020.9
20260501212517 12 293 3.2 4.8 0.00 0.00 0.00 88 1020.8
20260501211517 13 293 1.6 4.8 0.00 0.00 0.00 88 1020.6
20260501210517 13 293 3.2 6.4 0.00 0.00 0.00 88 1020.7
20260501205537 13 293 3.2 6.4 0.00 0.00 0.00 88 1020.7
20260501204517 13 293 3.2 6.4 0.00 0.00 0.00 86 1020.7
20260501203517 13 0.0 3.2 0.00 0.00 0.00 86 1020.7
20260501202517 14 293 4.8 11.3 0.00 0.00 0.00 85 1020.7
20260501201517 14 293 4.8 9.7 0.00 0.00 0.00 83 1020.6
20260501200517 15 293 4.8 9.7 0.00 0.00 0.00 81 1020.4
20260501195517 16 293 4.8 6.4 0.00 0.00 0.00 80 1020.5
20260501194517 16 293 3.2 4.8 0.00 0.00 0.00 79 1020.4
20260501193537 16 248 1.6 4.8 0.00 0.00 0.00 78 1020.3
20260501192517 16 270 3.2 8.0 0.00 0.00 0.00 77 1020.3
20260501191517 17 248 1.6 3.2 0.00 0.00 0.00 76 1020.3
20260501190517 17 248 1.6 6.4 0.00 0.00 0.00 74 1020.2
20260501185517 17 248 3.2 6.4 0.00 0.00 0.00 73 1020.1
20260501184517 17 270 1.6 4.8 0.00 0.00 0.00 72 1020.1
20260501183517 18 270 3.2 9.7 0.00 0.00 0.00 71 1020.2
20260501182517 18 293 4.8 11.3 0.00 0.00 0.00 69 1020.2
20260501181517 18 293 6.4 12.9 0.00 0.00 0.00 66 1020.0
20260501180517 18 293 6.4 11.3 0.00 0.00 0.00 65 1019.9
20260501175517 19 293 6.4 12.9 0.00 0.00 0.00 64 1019.8
20260501174517 19 293 6.4 14.5 0.00 0.00 0.00 63 1019.8
20260501173517 20 293 9.7 17.7 0.00 0.00 0.00 62 1019.7
20260501171516 21 270 9.7 17.7 0.00 0.00 0.00 59 1019.5
20260501170619 22 270 6.4 12.9 0.00 0.00 0.00 59 1019.4
20260501165516 22 270 6.4 17.7 0.00 0.00 0.00 59 1019.3
20260501164517 23 270 8.0 17.7 0.00 0.00 0.00 57 1019.1
20260501163536 24 203 8.0 17.7 0.00 0.00 0.00 55 1019.2
20260501162536 24 225 12.9 27.4 0.00 0.00 0.00 54 1019.0
20260501161517 24 203 9.7 19.3 0.00 0.00 0.00 50 1019.0
20260501160516 24 203 12.9 24.1 0.00 0.00 0.00 49 1019.1
20260501155517 23 203 6.4 16.1 0.00 0.00 0.00 52 1019.2
20260501154517 23 203 8.0 22.5 0.00 0.00 0.00 50 1019.2
20260501153516 23 158 6.4 22.5 0.00 0.00 0.00 50 1019.3
20260501152517 23 180 6.4 19.3 0.00 0.00 0.00 48 1019.3
20260501151516 23 180 4.8 19.3 0.00 0.00 0.00 49 1019.3
20260501150516 24 158 4.8 12.9 0.00 0.00 0.00 48 1019.6
20260501145516 25 203 8.0 16.1 0.00 0.00 0.00 47 1019.6